This is the latest recevied weather packets stored in our database for station/object N5PRN. If no packets are shown the sender has not sent any weather packets the latest 10 day(s).
| Time | Temp. | Humidity | Pressure | Rain* | Wind** | Luminosity | Snow |
|---|---|---|---|---|---|---|---|
| 1777699055 | 11.11° C | 96% | 1016.3 hPa | 0 mm | - | 0 W/m² | - |
| 1777698753 | 11.11° C | 96% | 1016.2 hPa | 0 mm | - | 0 W/m² | - |
| 1777698449 | 11.11° C | 96% | 1016.6 hPa | 0 mm | - | 0 W/m² | - |
| 1777698145 | 11.11° C | 96% | 1017.1 hPa | 1.27 mm | - | 0 W/m² | - |
| 1777697843 | 11.11° C | 96% | 1016.4 hPa | 1.27 mm | - | 0 W/m² | - |
| 1777697539 | 11.11° C | 96% | 1016.9 hPa | 0 mm | - | 0 W/m² | - |
| 1777697236 | 10.56° C | 96% | 1017.1 hPa | 0 mm | - | 0 W/m² | - |
| 1777696932 | 10.56° C | 96% | 1017.1 hPa | 0 mm | - | 0 W/m² | - |
| 1777696630 | 10.56° C | 96% | 1016.9 hPa | 1.78 mm | - | 0 W/m² | - |
| 1777696328 | 10.56° C | 96% | 1016.7 hPa | 1.78 mm | - | 0 W/m² | - |
| 1777696027 | 10.56° C | 96% | 1017 hPa | 3.05 mm | - | 0 W/m² | - |
| 1777695725 | 10.56° C | 96% | 1016.9 hPa | 1.27 mm | - | 0 W/m² | - |
| 1777695422 | 10.56° C | 96% | 1016.3 hPa | 0 mm | - | 0 W/m² | - |
| 1777695119 | 10.56° C | 96% | 1016.4 hPa | 0 mm | - | 0 W/m² | - |
| 1777694816 | 10.56° C | 96% | 1016.4 hPa | 1.78 mm | - | 0 W/m² | - |
| 1777694513 | 10.56° C | 96% | 1016.4 hPa | 3.05 mm | - | 0 W/m² | - |
| 1777694209 | 10.56° C | 96% | 1016.4 hPa | 3.05 mm | - | 0 W/m² | - |
| 1777693906 | 10.56° C | 96% | 1016.2 hPa | 6.1 mm | - | 0 W/m² | - |
| 1777693604 | 10.56° C | 96% | 1016.4 hPa | 4.32 mm | - | 0 W/m² | - |
| 1777693302 | 10.56° C | 96% | 1016.4 hPa | 3.05 mm | - | 0 W/m² | - |
| 1777692999 | 10.56° C | 96% | 1016.3 hPa | 1.78 mm | - | 0 W/m² | - |
| 1777692697 | 10.56° C | 96% | 1016.6 hPa | 1.78 mm | - | 0 W/m² | - |
| 1777692393 | 10.56° C | 96% | 1016.4 hPa | 1.78 mm | - | 0 W/m² | - |
| 1777692089 | 10.56° C | 96% | 1016.7 hPa | 1.27 mm | - | 0 W/m² | - |
| 1777691787 | 10.56° C | 96% | 1017 hPa | 1.27 mm | - | 0 W/m² | - |
* Rain latest hour (hover to see other rain measurements)
** Current wind speed in m/s (hover to see current wind gust speed)